START_TIME,STEP,MOV.,M6,t_acc.,M7,t_acc.,M19,t_acc.,H36,t_acc.
1979-07-14 18:00:27.360 ,0,1,0.,12.0,0.,12.0,0.,12.0,0.,12.0
1979-07-14 18:00:39.360 ,0,1,0.,12.0,0.,12.0,0.,12.0,0.,12.0
1979-07-14 18:00:51.360 ,3,1,0.,12.0,0.,12.0,0.,12.0,0.,12.0
1979-07-14 18:01:03.360 ,3,1,0.,12.0,0.,12.0,0.,12.0,0.,12.0
1979-07-14 18:01:15.360 ,7,1,0.,12.0,0.,12.0,0.,12.0,0.,12.0
1979-07-14 18:01:27.360 ,7,1,0.,12.0,0.,12.0,0.,12.0,0.,12.0
1979-07-14 18:01:39.360 ,4,1,0.,12.0,0.,12.0,0.,12.0,0.,12.0
1979-07-14 18:01:51.360 ,4,1,0.,12.0,0.,12.0,0.,12.0,0.,12.0
1979-07-14 18:02:03.360 ,0,1,0.,12.0,0.,12.0,0.,12.0,0.,12.0
1979-07-14 18:02:15.360 ,0,1,0.,12.0,0.,12.0,0.,12.0,0.,12.0
1979-07-14 18:02:27.360 ,3,1,0.,12.0,0.,12.0,0.,12.0,0.,12.0
1979-07-14 18:02:39.360 ,3,1,0.,12.0,0.,12.0,0.,12.0,0.,12.0
1979-07-14 18:02:51.360 ,7,1,0.,12.0,0.,12.0,0.,12.0,0.,12.0
1979-07-14 18:03:03.360 ,7,1,0.,12.0,0.,12.0,0.,12.0,0.,12.0
1979-07-14 18:03:15.360 ,4,1,0.,12.0,0.,12.0,0.,12.0,0.,12.0
1979-07-14 18:03:27.360 ,4,1,0.,12.0,0.,12.0,0.,12.0,0.,12.0
1979-07-14 18:03:39.360 ,0,1,0.,12.0,0.,12.0,0.,12.0,0.,12.0
1979-07-14 18:03:51.360 ,0,1,0.,12.0,0.,12.0,0.,12.0,0.,12.0
1979-07-14 18:04:03.360 ,3,1,0.,12.0,0.,12.0,0.,12.0,0.,12.0
1979-07-14 18:04:15.360 ,3,1,0.,12.0,0.,12.0,0.,12.0,0.,12.0
1979-07-14 18:04:27.360 ,7,1,0.,12.0,0.,12.0,0.,12.0,0.,12.0
1979-07-14 18:04:39.360 ,7,1,0.,12.0,0.,12.0,0.,12.0,0.,12.0
1979-07-14 18:04:51.360 ,4,1,0.,12.0,0.,12.0,0.,12.0,0.,12.0
1979-07-14 18:05:03.360 ,4,1,0.,12.0,0.,12.0,0.,12.0,0.,12.0
1979-07-14 18:05:15.360 ,0,1,0.,12.0,0.,12.0,0.,12.0,0.,12.0
1979-07-14 18:05:27.360 ,0,1,0.,12.0,0.,12.0,0.,12.0,0.,12.0
1979-07-14 18:05:39.360 ,0,0,0.,12.0,0.,12.0,0.,12.0,0.,12.0
1979-07-14 18:05:51.360 ,0,0,0.,12.0,0.,12.0,0.,12.0,0.,12.0
1979-07-14 18:06:03.360 ,0,0,0.,12.0,0.,12.0,0.,12.0,0.,12.0
1979-07-14 18:06:15.360 ,0,0,0.,12.0,0.,12.0,0.,12.0,0.,12.0
1979-07-14 18:06:27.360 ,5,1,0.,12.0,0.,12.0,0.,12.0,0.,12.0
1979-07-14 18:06:39.360 ,5,1,0.,12.0,0.,12.0,0.,12.0,0.,12.0
1979-07-14 18:06:51.360 ,5,0,0.,12.0,0.,12.0,0.,12.0,0.,12.0
1979-07-14 18:07:03.360 ,5,0,0.,12.0,0.,12.0,0.,12.0,0.,12.0
1979-07-14 18:07:15.360 ,4,1,0.,12.0,0.,12.0,0.,12.0,0.,12.0
1979-07-14 18:07:27.360 ,4,1,0.,12.0,0.,12.0,0.,12.0,0.,12.0
1979-07-14 18:07:39.360 ,4,0,0.,12.0,0.,12.0,0.,12.0,0.,12.0
1979-07-14 18:07:51.360 ,4,0,0.,12.0,0.,12.0,0.,12.0,0.,12.0
1979-07-14 18:08:03.360 ,3,1,0.,12.0,0.,12.0,0.,12.0,0.,12.0
1979-07-14 18:08:15.360 ,3,1,0.,12.0,0.,12.0,0.,12.0,0.,12.0
1979-07-14 18:08:27.360 ,3,0,0.,12.0,0.,12.0,0.,12.0,0.,12.0
1979-07-14 18:08:39.360 ,3,0,0.,12.0,0.,12.0,0.,12.0,0.,12.0
1979-07-14 18:08:51.360 ,2,1,0.,12.0,0.,12.0,0.,12.0,0.,12.0
1979-07-14 18:09:03.360 ,2,1,0.,12.0,0.,12.0,0.,12.0,0.,12.0
1979-07-14 18:09:15.360 ,2,0,0.,12.0,0.,12.0,0.,12.0,0.,12.0
1979-07-14 18:09:27.360 ,2,0,0.,12.0,0.,12.0,0.,12.0,0.,12.0
1979-07-14 18:09:39.360 ,1,1,0.,12.0,0.,12.0,0.,12.0,0.,12.0
1979-07-14 18:09:51.360 ,1,1,0.,12.0,0.,12.0,0.,12.0,0.,12.0
1979-07-14 18:10:03.360 ,1,0,0.,12.0,0.,12.0,0.,12.0,0.,12.0
1979-07-14 18:10:15.360 ,1,0,0.,12.0,0.,12.0,0.,12.0,0.,12.0
1979-07-14 18:10:27.360 ,0,1,0.,12.0,0.,12.0,0.,12.0,0.,12.0
1979-07-14 18:10:39.360 ,0,1,0.,12.0,0.,12.0,0.,12.0,0.,12.0
1979-07-14 18:10:51.360 ,0,0,0.,12.0,0.,12.0,0.,12.0,0.,12.0
1979-07-14 18:11:03.360 ,0,0,0.,12.0,0.,12.0,0.,12.0,0.,12.0
1979-07-14 18:11:15.360 ,0,1,0.,12.0,0.,12.0,0.,12.0,0.,12.0
1979-07-14 18:11:27.360 ,0,1,0.,12.0,0.,12.0,0.,12.0,0.,12.0
1979-07-14 18:11:39.360 ,0,0,0.,12.0,0.,12.0,0.,12.0,0.,12.0
1979-07-14 18:11:51.360 ,0,0,0.,12.0,0.,12.0,0.,12.0,0.,12.0
1979-07-14 18:12:03.360 ,1,1,0.,12.0,0.,12.0,0.,12.0,0.,12.0
1979-07-14 18:12:15.360 ,1,1,0.,12.0,0.,12.0,0.,12.0,0.,12.0
1979-07-14 18:12:27.360 ,1,0,0.,12.0,0.,12.0,0.,12.0,0.,12.0
1979-07-14 18:12:39.360 ,1,0,0.,12.0,0.,12.0,0.,12.0,0.,12.0
1979-07-14 18:12:51.360 ,2,1,0.,12.0,0.,12.0,0.,12.0,0.,12.0
1979-07-14 18:13:03.360 ,2,1,0.,12.0,0.,12.0,0.,12.0,0.,12.0
1979-07-14 18:13:15.360 ,2,0,0.,12.0,0.,12.0,0.,12.0,0.,12.0
1979-07-14 18:13:27.360 ,2,0,0.,12.0,0.,12.0,0.,12.0,0.,12.0
1979-07-14 18:13:39.360 ,3,1,0.,12.0,0.,12.0,0.,12.0,0.,12.0
1979-07-14 18:13:51.360 ,3,1,0.,12.0,0.,12.0,0.,12.0,0.,12.0
1979-07-14 18:14:03.360 ,3,0,0.,12.0,0.,12.0,0.,12.0,0.,12.0
1979-07-14 18:14:15.360 ,3,0,0.,12.0,0.,12.0,0.,12.0,0.,12.0
1979-07-14 18:14:27.360 ,4,1,0.,12.0,0.,12.0,0.,12.0,0.,12.0
1979-07-14 18:14:39.360 ,4,1,0.,12.0,0.,12.0,0.,12.0,0.,12.0
1979-07-14 18:14:51.360 ,4,0,0.,12.0,0.,12.0,0.,12.0,0.,12.0
1979-07-14 18:15:03.360 ,4,0,0.,12.0,0.,12.0,0.,12.0,0.,12.0
1979-07-14 18:15:15.360 ,5,1,0.,12.0,0.,12.0,0.,12.0,0.,12.0
1979-07-14 18:15:27.360 ,5,1,0.,12.0,0.,12.0,0.,12.0,0.,12.0
1979-07-14 18:15:39.360 ,5,0,0.,12.0,0.,12.0,0.,12.0,0.,12.0
1979-07-14 18:15:51.360 ,5,0,0.,12.0,0.,12.0,0.,12.0,0.,12.0
1979-07-14 18:16:03.360 ,6,1,0.,12.0,0.,12.0,0.,12.0,0.,12.0
1979-07-14 18:16:15.360 ,6,1,0.,12.0,0.,12.0,0.,12.0,0.,12.0
1979-07-14 18:16:27.360 ,6,0,0.,12.0,0.,12.0,0.,12.0,0.,12.0
1979-07-14 18:16:39.360 ,6,0,0.,12.0,0.,12.0,0.,12.0,0.,12.0
1979-07-14 18:16:51.360 ,7,1,0.,12.0,0.,12.0,0.,12.0,0.,12.0
1979-07-14 18:17:03.360 ,7,1,0.,12.0,0.,12.0,0.,12.0,0.,12.0
1979-07-14 18:17:15.360 ,7,0,0.,12.0,0.,12.0,0.,12.0,0.,12.0
1979-07-14 18:17:27.360 ,7,0,0.,12.0,0.,12.0,0.,12.0,0.,12.0
1979-07-14 18:17:39.360 ,7,1,0.,12.0,0.,12.0,0.,12.0,0.,12.0
1979-07-14 18:17:51.360 ,7,1,0.,12.0,0.,12.0,0.,12.0,0.,12.0
1979-07-14 18:18:03.360 ,7,0,0.,12.0,0.,12.0,0.,12.0,0.,12.0
1979-07-14 18:18:15.360 ,7,0,0.,12.0,0.,12.0,0.,12.0,0.,12.0
1979-07-14 18:18:27.360 ,6,1,0.,12.0,0.,12.0,0.,12.0,0.,12.0
1979-07-14 18:18:39.360 ,6,1,0.,12.0,0.,12.0,0.,12.0,0.,12.0
1979-07-14 18:18:51.360 ,6,0,0.,12.0,0.,12.0,0.,12.0,0.,12.0
1979-07-14 18:19:03.360 ,6,0,0.,12.0,0.,12.0,0.,12.0,0.,12.0
1979-07-14 18:19:15.360 ,5,1,0.,12.0,0.,12.0,0.,12.0,0.,12.0
1979-07-14 18:19:27.360 ,5,1,0.,12.0,0.,12.0,0.,12.0,0.,12.0
1979-07-14 18:19:39.360 ,5,0,0.,12.0,0.,12.0,0.,12.0,0.,12.0
1979-07-14 18:19:51.360 ,5,0,0.,12.0,0.,12.0,0.,12.0,0.,12.0
1979-07-14 18:20:03.360 ,4,1,0.,12.0,0.,12.0,0.,12.0,0.,12.0
1979-07-14 18:20:15.360 ,4,1,0.,12.0,0.,12.0,0.,12.0,0.,12.0
1979-07-14 18:20:27.360 ,4,0,0.,12.0,0.,12.0,0.,12.0,0.,12.0
1979-07-14 18:20:39.360 ,4,0,0.,12.0,0.,12.0,0.,12.0,0.,12.0
1979-07-14 18:20:51.360 ,3,1,0.,12.0,0.,12.0,0.,12.0,0.,12.0
1979-07-14 18:21:03.360 ,3,1,0.,12.0,0.,12.0,0.,12.0,0.,12.0
1979-07-14 18:21:15.360 ,3,0,0.,12.0,0.,12.0,0.,12.0,0.,12.0
1979-07-14 18:21:27.360 ,3,0,0.,12.0,0.,12.0,0.,12.0,0.,12.0
1979-07-14 18:21:39.360 ,2,1,0.,12.0,0.,12.0,0.,12.0,0.,12.0
1979-07-14 18:21:51.360 ,2,1,0.,12.0,0.,12.0,0.,12.0,0.,12.0
1979-07-14 18:22:03.360 ,2,0,0.,12.0,0.,12.0,0.,12.0,0.,12.0
1979-07-14 18:22:15.360 ,2,0,0.,12.0,0.,12.0,0.,12.0,0.,12.0
1979-07-14 18:22:27.360 ,1,1,0.,12.0,0.,12.0,0.,12.0,0.,12.0
1979-07-14 18:22:39.360 ,1,1,0.,12.0,0.,12.0,0.,12.0,0.,12.0
1979-07-14 18:22:51.360 ,1,0,0.,12.0,0.,12.0,0.,12.0,0.,12.0
1979-07-14 18:23:03.360 ,1,0,0.,12.0,0.,12.0,0.,12.0,0.,12.0
1979-07-14 18:23:15.360 ,0,1,0.,12.0,0.,12.0,0.,12.0,0.,12.0
1979-07-14 18:23:27.360 ,0,1,0.,12.0,0.,12.0,0.,12.0,0.,12.0
1979-07-14 18:23:39.360 ,0,0,0.,12.0,0.,12.0,0.,12.0,0.,12.0
1979-07-14 18:23:51.360 ,0,0,0.,12.0,0.,12.0,0.,12.0,0.,12.0
1979-07-14 18:24:03.360 ,0,1,0.,12.0,0.,12.0,0.,12.0,0.,12.0
1979-07-14 18:24:15.360 ,0,1,0.,12.0,0.,12.0,0.,12.0,0.,12.0
1979-07-14 18:24:27.360 ,0,0,0.,12.0,0.,12.0,0.,12.0,0.,12.0
1979-07-14 18:24:39.360 ,0,0,0.,12.0,0.,12.0,0.,12.0,0.,12.0
1979-07-14 18:24:51.360 ,1,1,0.,12.0,0.,12.0,0.,12.0,0.,12.0
1979-07-14 18:25:03.360 ,1,1,0.,12.0,0.,12.0,0.,12.0,0.,12.0
1979-07-14 18:25:15.360 ,1,0,0.,12.0,0.,12.0,0.,12.0,0.,12.0
1979-07-14 18:25:27.360 ,1,0,0.,12.0,0.,12.0,0.,12.0,0.,12.0
1979-07-14 18:25:39.360 ,2,1,0.,12.0,0.,12.0,0.,12.0,0.,12.0
1979-07-14 18:25:51.360 ,2,1,0.,12.0,0.,12.0,0.,12.0,0.,12.0
1979-07-14 18:26:03.360 ,2,0,0.,12.0,0.,12.0,0.,12.0,0.,12.0
1979-07-14 18:26:15.360 ,2,0,0.,12.0,0.,12.0,0.,12.0,0.,12.0
1979-07-14 18:27:15.360 ,0,0,0.,12.0,0.,12.0,0.,12.0,0.,12.0
1979-07-14 18:27:27.360 ,0,0,0.,12.0,0.,12.0,0.,12.0,0.,12.0
1979-07-14 18:27:39.360 ,0,0,0.,12.0,0.,12.0,0.,12.0,0.,12.0
1979-07-14 18:27:51.360 ,0,0,0.,12.0,0.,12.0,0.,12.0,0.,12.0
1979-07-14 18:28:03.360 ,5,1,0.,12.0,0.,12.0,0.,12.0,0.,12.0
1979-07-14 18:28:15.360 ,5,1,0.,12.0,0.,12.0,0.,12.0,0.,12.0
1979-07-14 18:28:27.360 ,5,0,0.,12.0,0.,12.0,0.,12.0,0.,12.0
1979-07-14 18:28:39.360 ,5,0,0.,12.0,0.,12.0,0.,12.0,0.,12.0
1979-07-14 18:28:51.360 ,6,1,0.,12.0,0.,12.0,0.,12.0,0.,12.0
1979-07-14 18:29:03.360 ,6,1,0.,12.0,0.,12.0,0.,12.0,0.,12.0
1979-07-14 18:29:15.360 ,6,0,0.,12.0,0.,12.0,0.,12.0,0.,12.0
1979-07-14 18:29:27.360 ,6,0,0.,12.0,0.,12.0,0.,12.0,0.,12.0
1979-07-14 18:29:39.360 ,7,1,0.,12.0,0.,12.0,0.,12.0,0.,12.0
1979-07-14 18:29:51.360 ,7,1,0.,12.0,0.,12.0,0.,12.0,0.,12.0
1979-07-14 18:30:03.360 ,7,0,0.,12.0,0.,12.0,0.,12.0,0.,12.0
1979-07-14 18:30:15.360 ,7,0,0.,12.0,0.,12.0,0.,12.0,0.,12.0
1979-07-14 18:30:27.360 ,7,1,0.,12.0,0.,12.0,0.,12.0,0.,12.0
1979-07-14 18:30:39.360 ,7,1,0.,12.0,0.,12.0,0.,12.0,0.,12.0
1979-07-14 18:30:51.360 ,7,0,0.,12.0,0.,12.0,0.,12.0,0.,12.0
1979-07-14 18:31:03.360 ,7,0,0.,12.0,0.,12.0,0.,12.0,0.,12.0
1979-07-14 18:31:15.360 ,6,1,0.,12.0,0.,12.0,0.,12.0,0.,12.0
1979-07-14 18:31:27.360 ,6,1,0.,12.0,0.,12.0,0.,12.0,0.,12.0
1979-07-14 18:31:39.360 ,6,0,0.,12.0,0.,12.0,0.,12.0,0.,12.0
1979-07-14 18:31:51.360 ,6,0,0.,12.0,0.,12.0,0.,12.0,0.,12.0
1979-07-14 18:32:03.360 ,5,1,0.,12.0,0.,12.0,0.,12.0,0.,12.0
1979-07-14 18:32:15.360 ,5,1,0.,12.0,0.,12.0,0.,12.0,0.,12.0
1979-07-14 18:32:27.360 ,5,0,0.,12.0,0.,12.0,0.,12.0,0.,12.0
1979-07-14 18:32:39.360 ,5,0,0.,12.0,0.,12.0,0.,12.0,0.,12.0
1979-07-14 18:32:51.360 ,4,1,0.,12.0,0.,12.0,0.,12.0,0.,12.0
1979-07-14 18:33:03.360 ,4,1,0.,12.0,0.,12.0,0.,12.0,0.,12.0
1979-07-14 18:33:15.360 ,4,0,0.,12.0,0.,12.0,0.,12.0,0.,12.0
1979-07-14 18:33:27.360 ,4,0,0.,12.0,0.,12.0,0.,12.0,0.,12.0
1979-07-14 18:33:39.360 ,3,1,0.,12.0,0.,12.0,0.,12.0,0.,12.0
1979-07-14 18:33:51.360 ,3,1,0.,12.0,0.,12.0,0.,12.0,0.,12.0
1979-07-14 18:34:03.360 ,3,0,0.,12.0,0.,12.0,0.,12.0,0.,12.0
1979-07-14 18:34:15.360 ,3,0,0.,12.0,0.,12.0,0.,12.0,0.,12.0
1979-07-14 18:34:27.360 ,2,1,0.,12.0,0.,12.0,0.,12.0,0.,12.0
1979-07-14 18:34:39.360 ,2,1,0.,12.0,0.,12.0,0.,12.0,0.,12.0
1979-07-14 18:34:51.360 ,2,0,0.,12.0,0.,12.0,0.,12.0,0.,12.0
1979-07-14 18:35:03.360 ,2,0,0.,12.0,0.,12.0,0.,12.0,0.,12.0
1979-07-14 18:35:15.360 ,1,1,0.,12.0,0.,12.0,0.,12.0,0.,12.0
1979-07-14 18:35:27.360 ,1,1,0.,12.0,0.,12.0,0.,12.0,0.,12.0
1979-07-14 18:35:39.360 ,1,0,0.,12.0,0.,12.0,0.,12.0,0.,12.0
1979-07-14 18:35:51.360 ,1,0,0.,12.0,0.,12.0,0.,12.0,0.,12.0
1979-07-14 18:36:03.360 ,0,1,0.,12.0,0.,12.0,0.,12.0,0.,12.0
1979-07-14 18:36:15.360 ,0,1,0.,12.0,0.,12.0,0.,12.0,0.,12.0
1979-07-14 18:36:27.360 ,0,0,0.,12.0,0.,12.0,0.,12.0,0.,12.0
1979-07-14 18:36:39.360 ,0,0,0.,12.0,0.,12.0,0.,12.0,0.,12.0
1979-07-14 18:36:51.360 ,0,1,0.,12.0,0.,12.0,0.,12.0,0.,12.0
1979-07-14 18:37:03.360 ,0,1,0.,12.0,0.,12.0,0.,12.0,0.,12.0
1979-07-14 18:37:15.360 ,0,0,0.,12.0,0.,12.0,0.,12.0,0.,12.0
1979-07-14 18:37:27.360 ,0,0,0.,12.0,0.,12.0,0.,12.0,0.,12.0
1979-07-14 18:37:39.360 ,1,1,0.,12.0,0.,12.0,0.,12.0,0.,12.0
1979-07-14 18:37:51.360 ,1,1,1.,12.0,0.,12.0,0.,12.0,0.,12.0
1979-07-14 18:38:03.360 ,1,0,0.,12.0,0.,12.0,0.,12.0,0.,12.0
1979-07-14 18:38:15.360 ,1,0,0.,12.0,0.,12.0,0.,12.0,0.,12.0
1979-07-14 18:38:27.360 ,2,1,0.,12.0,0.,12.0,0.,12.0,0.,12.0
1979-07-14 18:38:39.360 ,2,1,0.,12.0,0.,12.0,0.,12.0,0.,12.0
1979-07-14 18:38:51.360 ,2,0,0.,12.0,0.,12.0,0.,12.0,0.,12.0
1979-07-14 18:39:03.360 ,2,0,0.,12.0,0.,12.0,0.,12.0,0.,12.0
1979-07-14 18:39:15.360 ,3,1,0.,12.0,0.,12.0,0.,12.0,0.,12.0
1979-07-14 18:39:27.360 ,3,1,0.,12.0,0.,12.0,0.,12.0,0.,12.0
1979-07-14 18:39:39.360 ,3,0,0.,12.0,0.,12.0,0.,12.0,0.,12.0
1979-07-14 18:39:51.360 ,3,0,0.,12.0,0.,12.0,0.,12.0,0.,12.0
1979-07-14 18:40:03.360 ,4,1,0.,12.0,0.,12.0,0.,12.0,0.,12.0
1979-07-14 18:40:15.360 ,4,1,0.,12.0,0.,12.0,0.,12.0,0.,12.0
1979-07-14 18:40:27.360 ,4,0,0.,12.0,0.,12.0,0.,12.0,0.,12.0
1979-07-14 18:40:39.360 ,4,0,0.,12.0,0.,12.0,0.,12.0,0.,12.0
1979-07-14 18:40:51.360 ,5,1,0.,12.0,0.,12.0,0.,12.0,0.,12.0
1979-07-14 18:41:03.360 ,5,1,0.,12.0,0.,12.0,0.,12.0,0.,12.0
1979-07-14 18:41:15.360 ,5,0,0.,12.0,0.,12.0,0.,12.0,0.,12.0
1979-07-14 18:41:27.360 ,5,0,0.,12.0,0.,12.0,0.,12.0,0.,12.0
1979-07-14 18:41:39.360 ,6,1,0.,12.0,0.,12.0,0.,12.0,0.,12.0
1979-07-14 18:41:51.360 ,6,1,0.,12.0,0.,12.0,0.,12.0,0.,12.0
1979-07-14 18:42:03.360 ,6,0,0.,12.0,0.,12.0,0.,12.0,0.,12.0
1979-07-14 18:42:15.360 ,6,0,0.,12.0,0.,12.0,0.,12.0,0.,12.0
1979-07-14 18:42:27.360 ,7,0,0.,12.0,0.,12.0,0.,12.0,0.,12.0
1979-07-14 18:42:39.360 ,7,0,0.,12.0,0.,12.0,0.,12.0,0.,12.0
1979-07-14 18:42:51.360 ,7,0,0.,12.0,0.,12.0,0.,12.0,0.,12.0
1979-07-14 18:43:03.360 ,7,0,0.,12.0,0.,12.0,0.,12.0,0.,12.0
1979-07-14 18:43:15.360 ,4,1,0.,12.0,0.,12.0,0.,12.0,0.,12.0
1979-07-14 18:43:27.360 ,4,1,0.,12.0,0.,12.0,0.,12.0,0.,12.0
1979-07-14 18:43:39.360 ,0,1,0.,12.0,0.,12.0,0.,12.0,0.,12.0
1979-07-14 18:43:51.360 ,0,1,0.,12.0,0.,12.0,0.,12.0,0.,12.0
1979-07-14 18:44:03.360 ,3,1,0.,12.0,0.,12.0,0.,12.0,0.,12.0
1979-07-14 18:44:15.360 ,3,1,0.,12.0,0.,12.0,0.,12.0,0.,12.0
1979-07-14 18:44:27.360 ,7,1,0.,12.0,0.,12.0,0.,12.0,0.,12.0
1979-07-14 18:44:39.360 ,7,1,1.,12.0,0.,12.0,0.,12.0,0.,12.0
1979-07-14 18:44:51.360 ,4,1,0.,12.0,0.,12.0,0.,12.0,0.,12.0
1979-07-14 18:45:03.360 ,4,1,0.,12.0,0.,12.0,0.,12.0,0.,12.0
1979-07-14 18:45:15.360 ,0,1,0.,12.0,0.,12.0,0.,12.0,0.,12.0
1979-07-14 18:45:27.360 ,0,1,0.,12.0,0.,12.0,0.,12.0,0.,12.0
1979-07-14 18:45:39.360 ,3,1,0.,12.0,0.,12.0,0.,12.0,0.,12.0
1979-07-14 18:45:51.360 ,3,1,0.,12.0,0.,12.0,0.,12.0,0.,12.0
1979-07-14 18:46:03.360 ,7,1,0.,12.0,0.,12.0,0.,12.0,0.,12.0
1979-07-14 18:46:15.360 ,7,1,0.,12.0,0.,12.0,0.,12.0,0.,12.0
1979-07-14 18:46:27.360 ,4,1,0.,12.0,0.,12.0,0.,12.0,0.,12.0
1979-07-14 18:46:39.360 ,4,1,0.,12.0,0.,12.0,0.,12.0,0.,12.0
1979-07-14 18:46:51.360 ,0,1,0.,12.0,0.,12.0,0.,12.0,0.,12.0
1979-07-14 18:47:03.360 ,0,1,0.,12.0,0.,12.0,0.,12.0,0.,12.0
1979-07-14 18:47:15.360 ,3,1,0.,12.0,0.,12.0,0.,12.0,0.,12.0
1979-07-14 18:47:27.360 ,3,1,0.,12.0,0.,12.0,0.,12.0,0.,12.0
1979-07-14 18:47:39.360 ,7,1,0.,12.0,0.,12.0,0.,12.0,0.,12.0
1979-07-14 18:47:51.360 ,7,1,0.,12.0,0.,12.0,0.,12.0,0.,12.0
1979-07-14 18:48:03.360 ,4,1,0.,12.0,0.,12.0,0.,12.0,0.,12.0
1979-07-14 18:48:15.360 ,4,1,0.,12.0,0.,12.0,0.,12.0,0.,12.0
1979-07-14 18:48:27.360 ,0,1,0.,12.0,0.,12.0,0.,12.0,0.,12.0
1979-07-14 18:48:39.360 ,0,1,0.,12.0,0.,12.0,0.,12.0,0.,12.0
1979-07-14 18:48:51.360 ,3,1,0.,12.0,0.,12.0,0.,12.0,0.,12.0
1979-07-14 18:49:03.360 ,3,1,0.,12.0,0.,12.0,0.,12.0,0.,12.0
1979-07-14 18:49:15.360 ,7,1,0.,12.0,0.,12.0,0.,12.0,0.,12.0
1979-07-14 18:49:27.360 ,7,1,0.,12.0,0.,12.0,0.,12.0,0.,12.0
1979-07-14 18:49:39.360 ,4,1,0.,12.0,0.,12.0,0.,12.0,0.,12.0
1979-07-14 18:49:51.360 ,4,1,0.,12.0,0.,12.0,0.,12.0,0.,12.0
1979-07-14 18:50:03.360 ,0,1,0.,12.0,0.,12.0,0.,12.0,0.,12.0
1979-07-14 18:50:15.360 ,0,1,0.,12.0,0.,12.0,0.,12.0,0.,12.0
1979-07-14 18:50:27.360 ,3,1,0.,12.0,0.,12.0,0.,12.0,0.,12.0
1979-07-14 18:50:39.360 ,3,1,0.,12.0,0.,12.0,0.,12.0,0.,12.0
1979-07-14 18:50:51.360 ,7,1,0.,12.0,0.,12.0,0.,12.0,0.,12.0
1979-07-14 18:51:03.360 ,7,1,0.,12.0,0.,12.0,0.,12.0,0.,12.0
1979-07-14 18:51:15.360 ,4,1,0.,12.0,0.,12.0,0.,12.0,0.,12.0
1979-07-14 18:51:27.360 ,4,1,0.,12.0,0.,12.0,0.,12.0,0.,12.0
1979-07-14 18:51:39.360 ,0,1,0.,12.0,0.,12.0,0.,12.0,0.,12.0
1979-07-14 18:51:51.360 ,0,1,1.,12.0,0.,12.0,0.,12.0,0.,12.0
1979-07-14 18:52:03.360 ,3,1,0.,12.0,0.,12.0,0.,12.0,0.,12.0
1979-07-14 18:52:15.360 ,3,1,0.,12.0,0.,12.0,0.,12.0,0.,12.0
1979-07-14 18:52:27.360 ,7,1,0.,12.0,0.,12.0,0.,12.0,0.,12.0
1979-07-14 18:52:39.360 ,7,1,0.,12.0,0.,12.0,0.,12.0,0.,12.0
1979-07-14 18:52:51.360 ,4,1,0.,12.0,0.,12.0,0.,12.0,0.,12.0
1979-07-14 18:53:03.360 ,4,1,0.,12.0,0.,12.0,0.,12.0,0.,12.0
1979-07-14 18:53:15.360 ,0,1,0.,12.0,0.,12.0,0.,12.0,0.,12.0
1979-07-14 18:53:27.360 ,0,1,0.,12.0,0.,12.0,0.,12.0,0.,12.0
1979-07-14 18:53:39.360 ,0,0,0.,12.0,0.,12.0,0.,12.0,0.,12.0
1979-07-14 18:53:51.360 ,0,0,0.,12.0,0.,12.0,0.,12.0,0.,12.0
1979-07-14 18:54:03.360 ,0,0,0.,12.0,0.,12.0,0.,12.0,0.,12.0
1979-07-14 18:54:15.360 ,0,0,0.,12.0,0.,12.0,0.,12.0,0.,12.0
1979-07-14 18:55:15.360 ,0,0,0.,12.0,0.,12.0,0.,12.0,0.,12.0
1979-07-14 18:55:27.360 ,0,0,0.,12.0,0.,12.0,0.,12.0,0.,12.0
1979-07-14 18:55:39.360 ,0,0,0.,12.0,0.,12.0,0.,12.0,0.,12.0
1979-07-14 18:55:51.360 ,0,0,0.,12.0,0.,12.0,0.,12.0,0.,12.0
1979-07-14 18:56:03.360 ,3,1,0.,12.0,0.,12.0,0.,12.0,0.,12.0
1979-07-14 18:56:15.360 ,3,1,0.,12.0,0.,12.0,0.,12.0,0.,12.0
1979-07-14 18:56:27.360 ,3,0,0.,12.0,0.,12.0,0.,12.0,0.,12.0
1979-07-14 18:56:39.360 ,3,0,0.,12.0,0.,12.0,0.,12.0,0.,12.0
1979-07-14 18:56:51.360 ,2,1,0.,12.0,0.,12.0,0.,12.0,0.,12.0
1979-07-14 18:57:03.360 ,2,1,0.,12.0,0.,12.0,0.,12.0,0.,12.0
1979-07-14 18:57:15.360 ,2,0,0.,12.0,0.,12.0,0.,12.0,0.,12.0
1979-07-14 18:57:27.360 ,2,0,0.,12.0,0.,12.0,0.,12.0,0.,12.0
1979-07-14 18:57:39.360 ,1,1,0.,12.0,0.,12.0,0.,12.0,0.,12.0
1979-07-14 18:57:51.360 ,1,1,0.,12.0,0.,12.0,0.,12.0,0.,12.0
1979-07-14 18:58:03.360 ,1,0,0.,12.0,0.,12.0,0.,12.0,0.,12.0
1979-07-14 18:58:15.360 ,1,0,0.,12.0,0.,12.0,0.,12.0,0.,12.0
1979-07-14 18:58:27.360 ,0,1,0.,12.0,0.,12.0,0.,12.0,0.,12.0
1979-07-14 18:58:39.360 ,0,1,0.,12.0,0.,12.0,0.,12.0,0.,12.0
1979-07-14 18:58:51.360 ,0,0,0.,12.0,0.,12.0,0.,12.0,0.,12.0
1979-07-14 18:59:03.360 ,0,0,0.,12.0,0.,12.0,0.,12.0,0.,12.0
1979-07-14 18:59:15.360 ,0,1,0.,12.0,0.,12.0,0.,12.0,0.,12.0
1979-07-14 18:59:27.360 ,0,1,0.,12.0,0.,12.0,0.,12.0,0.,12.0
1979-07-14 18:59:39.360 ,0,0,0.,12.0,0.,12.0,0.,12.0,0.,12.0
1979-07-14 18:59:51.360 ,0,0,0.,12.0,0.,12.0,0.,12.0,0.,12.0
1979-07-14 19:00:03.360 ,1,1,0.,12.0,0.,12.0,0.,12.0,0.,12.0
1979-07-14 19:00:15.360 ,1,1,0.,12.0,0.,12.0,0.,12.0,0.,12.0
1979-07-14 19:00:27.360 ,1,0,0.,12.0,0.,12.0,0.,12.0,0.,12.0
1979-07-14 19:00:39.360 ,1,0,0.,12.0,0.,12.0,0.,12.0,0.,12.0
1979-07-14 19:00:51.360 ,2,1,0.,12.0,0.,12.0,0.,12.0,0.,12.0
1979-07-14 19:01:03.360 ,2,1,0.,12.0,0.,12.0,0.,12.0,0.,12.0
1979-07-14 19:01:15.360 ,2,0,0.,12.0,0.,12.0,0.,12.0,0.,12.0
1979-07-14 19:01:27.360 ,2,0,0.,12.0,0.,12.0,0.,12.0,0.,12.0
1979-07-14 19:01:39.360 ,3,1,0.,12.0,0.,12.0,0.,12.0,0.,12.0
1979-07-14 19:01:51.360 ,3,1,0.,12.0,0.,12.0,0.,12.0,0.,12.0
1979-07-14 19:02:03.360 ,3,0,0.,12.0,0.,12.0,0.,12.0,0.,12.0
1979-07-14 19:02:15.360 ,3,0,0.,12.0,0.,12.0,0.,12.0,0.,12.0
1979-07-14 19:02:27.360 ,4,1,0.,12.0,0.,12.0,0.,12.0,0.,12.0
1979-07-14 19:02:39.360 ,4,1,0.,12.0,0.,12.0,0.,12.0,0.,12.0
1979-07-14 19:02:51.360 ,4,0,0.,12.0,0.,12.0,0.,12.0,0.,12.0
1979-07-14 19:03:03.360 ,4,0,0.,12.0,0.,12.0,0.,12.0,0.,12.0
1979-07-14 19:03:15.360 ,5,1,0.,12.0,0.,12.0,0.,12.0,0.,12.0
1979-07-14 19:03:27.360 ,5,1,0.,12.0,0.,12.0,0.,12.0,0.,12.0
1979-07-14 19:03:39.360 ,5,0,0.,12.0,0.,12.0,0.,12.0,0.,12.0
1979-07-14 19:03:51.360 ,5,0,0.,12.0,0.,12.0,0.,12.0,0.,12.0
1979-07-14 19:04:03.360 ,6,1,0.,12.0,0.,12.0,0.,12.0,0.,12.0
1979-07-14 19:04:15.360 ,6,1,0.,12.0,0.,12.0,0.,12.0,0.,12.0
1979-07-14 19:04:27.360 ,6,0,0.,12.0,0.,12.0,0.,12.0,0.,12.0
1979-07-14 19:04:39.360 ,6,0,0.,12.0,0.,12.0,0.,12.0,0.,12.0
1979-07-14 19:04:51.360 ,7,1,1.,12.0,0.,12.0,0.,12.0,0.,12.0
1979-07-14 19:05:03.360 ,7,1,0.,12.0,0.,12.0,0.,12.0,0.,12.0
1979-07-14 19:05:15.360 ,7,0,0.,12.0,0.,12.0,0.,12.0,0.,12.0
1979-07-14 19:05:27.360 ,7,0,0.,12.0,0.,12.0,0.,12.0,0.,12.0
1979-07-14 19:05:39.360 ,7,1,0.,12.0,0.,12.0,0.,12.0,0.,12.0
1979-07-14 19:05:51.360 ,7,1,0.,12.0,0.,12.0,0.,12.0,0.,12.0
1979-07-14 19:06:03.360 ,7,0,0.,12.0,0.,12.0,0.,12.0,0.,12.0
1979-07-14 19:06:15.360 ,7,0,0.,12.0,0.,12.0,0.,12.0,0.,12.0
1979-07-14 19:06:27.360 ,6,1,0.,12.0,0.,12.0,0.,12.0,0.,12.0
1979-07-14 19:06:39.360 ,6,1,0.,12.0,0.,12.0,0.,12.0,0.,12.0
1979-07-14 19:06:51.360 ,6,0,0.,12.0,0.,12.0,0.,12.0,0.,12.0
1979-07-14 19:07:03.360 ,6,0,0.,12.0,0.,12.0,0.,12.0,0.,12.0
1979-07-14 19:08:03.360 ,0,0,0.,12.0,0.,12.0,0.,12.0,0.,12.0
1979-07-14 19:08:15.360 ,0,0,0.,12.0,0.,12.0,0.,12.0,0.,12.0
1979-07-14 19:08:27.360 ,0,0,0.,12.0,0.,12.0,0.,12.0,0.,12.0
1979-07-14 19:08:39.360 ,0,0,0.,12.0,0.,12.0,0.,12.0,0.,12.0
1979-07-14 19:08:51.360 ,3,1,1.,12.0,0.,12.0,0.,12.0,0.,12.0
1979-07-14 19:09:03.360 ,3,1,0.,12.0,0.,12.0,0.,12.0,0.,12.0
1979-07-14 19:09:15.360 ,3,0,0.,12.0,0.,12.0,0.,12.0,0.,12.0
1979-07-14 19:09:27.360 ,3,0,0.,12.0,0.,12.0,0.,12.0,0.,12.0
1979-07-14 19:09:39.360 ,2,1,0.,12.0,0.,12.0,0.,12.0,0.,12.0
1979-07-14 19:09:51.360 ,2,1,0.,12.0,0.,12.0,0.,12.0,0.,12.0
1979-07-14 19:10:03.360 ,2,0,0.,12.0,0.,12.0,0.,12.0,0.,12.0
1979-07-14 19:10:15.360 ,2,0,0.,12.0,0.,12.0,0.,12.0,0.,12.0
1979-07-14 19:10:27.360 ,1,1,0.,12.0,0.,12.0,0.,12.0,0.,12.0
1979-07-14 19:10:39.360 ,1,1,0.,12.0,0.,12.0,0.,12.0,0.,12.0
1979-07-14 19:10:51.360 ,1,0,0.,12.0,0.,12.0,0.,12.0,0.,12.0
1979-07-14 19:11:03.360 ,1,0,0.,12.0,0.,12.0,0.,12.0,0.,12.0
1979-07-14 19:11:15.360 ,0,1,0.,12.0,0.,12.0,0.,12.0,0.,12.0
1979-07-14 19:11:27.360 ,0,1,0.,12.0,0.,12.0,0.,12.0,0.,12.0
1979-07-14 19:11:39.360 ,0,0,0.,12.0,0.,12.0,0.,12.0,0.,12.0
1979-07-14 19:11:51.360 ,0,0,0.,12.0,0.,12.0,0.,12.0,0.,12.0
1979-07-14 19:12:03.360 ,0,1,0.,12.0,0.,12.0,0.,12.0,0.,12.0
1979-07-14 19:12:15.360 ,0,1,0.,12.0,0.,12.0,0.,12.0,0.,12.0
1979-07-14 19:12:27.360 ,0,0,0.,12.0,0.,12.0,0.,12.0,0.,12.0
1979-07-14 19:12:39.360 ,0,0,0.,12.0,0.,12.0,0.,12.0,0.,12.0
1979-07-14 19:12:51.360 ,1,1,0.,12.0,0.,12.0,0.,12.0,0.,12.0
1979-07-14 19:13:03.360 ,1,1,0.,12.0,0.,12.0,0.,12.0,0.,12.0
1979-07-14 19:13:15.360 ,1,0,0.,12.0,0.,12.0,0.,12.0,0.,12.0
1979-07-14 19:13:27.360 ,1,0,0.,12.0,0.,12.0,0.,12.0,0.,12.0
1979-07-14 19:13:39.360 ,2,1,0.,12.0,0.,12.0,0.,12.0,0.,12.0
1979-07-14 19:13:51.360 ,2,1,0.,12.0,0.,12.0,0.,12.0,0.,12.0
1979-07-14 19:14:03.360 ,2,0,0.,12.0,0.,12.0,0.,12.0,0.,12.0
1979-07-14 19:14:15.360 ,2,0,0.,12.0,0.,12.0,0.,12.0,0.,12.0
1979-07-14 19:14:27.360 ,3,1,0.,12.0,0.,12.0,0.,12.0,0.,12.0
1979-07-14 19:14:39.360 ,3,1,0.,12.0,0.,12.0,0.,12.0,0.,12.0
1979-07-14 19:14:51.360 ,3,0,0.,12.0,0.,12.0,0.,12.0,0.,12.0
1979-07-14 19:15:03.360 ,3,0,0.,12.0,0.,12.0,0.,12.0,0.,12.0
1979-07-14 19:15:15.360 ,4,1,1.,12.0,0.,12.0,0.,12.0,0.,12.0
1979-07-14 19:15:27.360 ,4,1,0.,12.0,0.,12.0,0.,12.0,0.,12.0
1979-07-14 19:15:39.360 ,4,0,0.,12.0,0.,12.0,0.,12.0,0.,12.0
1979-07-14 19:15:51.360 ,4,0,0.,12.0,0.,12.0,0.,12.0,0.,12.0
1979-07-14 19:16:03.360 ,5,1,0.,12.0,0.,12.0,0.,12.0,0.,12.0
1979-07-14 19:16:15.360 ,5,1,0.,12.0,0.,12.0,0.,12.0,0.,12.0
1979-07-14 19:16:27.360 ,5,0,0.,12.0,0.,12.0,0.,12.0,0.,12.0
1979-07-14 19:16:39.360 ,5,0,0.,12.0,0.,12.0,0.,12.0,0.,12.0
1979-07-14 19:16:51.360 ,6,1,0.,12.0,0.,12.0,0.,12.0,0.,12.0
1979-07-14 19:17:03.360 ,6,1,0.,12.0,0.,12.0,0.,12.0,0.,12.0
1979-07-14 19:17:15.360 ,6,0,0.,12.0,0.,12.0,0.,12.0,0.,12.0
1979-07-14 19:17:27.360 ,6,0,0.,12.0,0.,12.0,0.,12.0,0.,12.0
1979-07-14 19:17:39.360 ,7,1,0.,12.0,0.,12.0,0.,12.0,0.,12.0
1979-07-14 19:17:51.360 ,7,1,0.,12.0,0.,12.0,0.,12.0,0.,12.0
1979-07-14 19:18:03.360 ,7,0,0.,12.0,0.,12.0,0.,12.0,0.,12.0
1979-07-14 19:18:15.360 ,7,0,0.,12.0,0.,12.0,0.,12.0,0.,12.0
1979-07-14 19:18:27.360 ,7,1,0.,12.0,0.,12.0,0.,12.0,0.,12.0
1979-07-14 19:18:39.360 ,7,1,0.,12.0,0.,12.0,0.,12.0,0.,12.0
1979-07-14 19:18:51.360 ,7,0,0.,12.0,0.,12.0,0.,12.0,0.,12.0
1979-07-14 19:19:03.360 ,7,0,0.,12.0,0.,12.0,0.,12.0,0.,12.0
1979-07-14 19:19:15.360 ,6,1,0.,12.0,0.,12.0,0.,12.0,0.,12.0
1979-07-14 19:19:27.360 ,6,1,0.,12.0,0.,12.0,0.,12.0,0.,12.0
1979-07-14 19:19:39.360 ,6,0,0.,12.0,0.,12.0,0.,12.0,0.,12.0
1979-07-14 19:19:51.360 ,6,0,0.,12.0,0.,12.0,0.,12.0,0.,12.0